COSMOS 1275 DEB, 42154

Orbit data source: Space-Track

COSMOS 1275 DEB, 42154 is space debris in LEO originally from a launch on Thu, 04 Jun 1981 UTC launched from the Plesetsk Missile And Space Complex (PKMTR). Debris objects in space refer to the collection of defunct objects orbiting the Earth. Examples of debris include non-operational satellites, rocket bodies, and fragments generated from explosions, collisions, or faulty payload assembly.

Loading next visibility...
Identifier
42154, 1981-053RS
Orbit
LEO
Country
Flag of CISCIS
Related business
Manufacturer
Unknown
Mission
Spacecraft
Bus & Motor
Unknown
Mass
Unknown
Launch date (UTC)
1981-06-04 (45 years ago)
Launch vehicle
Unknown
Launch site
Plesetsk Missile And Space Complex (PKMTR)
Object type
Payload
Rocket body
Debris
Shape & HBR
Unknown shape, 0.1 m
Radar Cross Section
Small (<0.1 m²)

Expand to show TLE details & history
Last TLE update: 1 month ago

TLE from 1 month ago
0 COSMOS 1275 DEB
1 42154U 81053RS  26006.46672573  .00000394  00000-0  41857-3 0  9991
2 42154  82.8060  74.4534 0127257  40.8488 335.1824 13.68408386549466
Epoch: 2026-01-06T11:12Z
TLE epoch observation values (Epoch: 2026-01-06T11:12:05.103Z)
Latitude
15.263°
Longitude
162.34649°
Altitude
922.402 km
Speed
7.434 km/s
True Right ascension
05h 05m 40s
True Declination
15° 10' 40"
Sunlit
Object was in full shadow at epoch
Visualization orbit readout
Latitude
Unknown
Longitude
Unknown
Altitude
Unknown
Speed
Unknown
Apparent Right ascension
Unknown
Apparent Declination
Unknown
Sunlit
N/A
Visualization observer readout
Local Sidereal Time
16:49:56
Azimuth
Unknown
Elevation
Unknown
Doppler factor
Unknown
Orbital elements
Apogee altitude
1,096.376 km
Perigee altitude
908.53 km
Semi-major axis
7,380.59 km
Eccentricity
0.01273
Inclination
82.806°
RAAN
74.4534°
Arg. of periapsis
40.8488°
True anomaly
334.56138°
Mean anomaly
335.1824°
Eccentric anomaly
334.87279°
Mean motion
3.423 °/min
Orbital period
105.17 mins
BSTAR
0.00041857
Loading maneuver chart data...
Computing Atmospheric mass density...
Loading historical data...
Loading historical data...
Loading historical data...
Loading historical data...
Loading historical data...
Loading historical data...
Loading historical data...

Documentation

Showing up to 5 results
|